FENGYUN 1C DEB, 30322

Orbit data source: Space-Track

FENGYUN 1C DEB, 30322 is space debris in SSO originally from a launch on Mon, 10 May 1999 UTC launched from the Taiyaun Space Center, China (TSC). Fengyun 1C debris stems from the Chinese weather satellite Fengyun-1C, which was intentionally destroyed by a Chinese anti-satellite missile in 2007. This event dramatically increased the amount of space debris, with thousands of trackable fragments posing hazards to satellites and human spaceflight. The Fengyun 1C debris cloud has become a focal point in discussions about space sustainability and the need for international regulations to prevent the creation of new debris.

Loading next visibility...
Identifier
30322, 1999-025AAK
Orbit
SSO
Country
Flag of CNCN / PRC
Related business
Manufacturer
Unknown
Mission
Spacecraft
Bus & Motor
Unknown
Mass
Unknown
Launch date (UTC)
1999-05-10 (26 years ago)
Launch vehicle
Unknown
Launch site
Taiyaun Space Center, China (TSC)
Object type
Payload
Rocket body
Debris
Shape & HBR
Unknown
Radar Cross Section
Small (<0.1 m²)

Expand to show TLE details & history
Last TLE update: 14 hours ago

TLE from 14 hours ago
0 FENGYUN 1C DEB
1 30322U 99025AAK 25259.58417506  .00001165  00000-0  68873-3 0  9992
2 30322  98.4073 123.5325 0127037 139.3586 221.7150 14.05539476949755
Epoch: 2025-09-16T14:01Z
TLE epoch observation values (Epoch: 2025-09-16T14:01:12.725Z)
Latitude
-0°
Longitude
-82.5429°
Altitude
946.883 km
Speed
7.343 km/s
True Right ascension
08h 14m 07s
True Declination
0° 00' 00"
Sunlit
Object was in daylight at epoch
Visualization orbit readout
Latitude
Unknown
Longitude
Unknown
Altitude
Unknown
Speed
Unknown
Apparent Right ascension
Unknown
Apparent Declination
Unknown
Sunlit
N/A
Visualization observer readout
Local Sidereal Time
20:34:30
Azimuth
Unknown
Elevation
Unknown
Doppler factor
Unknown
Orbital elements
Apogee altitude
963.941 km
Perigee altitude
779.738 km
Semi-major axis
7,249.976 km
Eccentricity
0.0127
Inclination
98.4073°
RAAN
123.5325°
Arg. of periapsis
139.3586°
True anomaly
220.75771°
Mean anomaly
221.715°
Eccentric anomaly
221.23522°
Mean motion
3.51591 °/min
Orbital period
102.39 mins
BSTAR
0.00068873
Loading maneuver chart data...
Computing Atmospheric mass density...
Loading historical data...
Loading historical data...
Loading historical data...
Loading historical data...
Loading historical data...
Loading historical data...
Loading historical data...

Documentation

Showing up to 5 results
|